Time,TemperatureF,DewpointF,PressureIn,WindDirection,WindDirectionDegrees,WindSpeedMPH,WindSpeedGustMPH,Humidity,HourlyPrecipIn,Conditions,Clouds,dailyrainin,SoftwareType,DateUTC
2013-03-23 00:00:00,32.0,20.9,29.98,WNW,293,3.0,15.0,63,0.00,,OVC041,0.00,VWS V14.01,2013-03-23 04:00:00,
2013-03-23 00:05:00,32.0,20.9,29.97,WNW,300,7.0,13.0,63,0.00,,OVC037,0.00,VWS V14.01,2013-03-23 04:05:00,
2013-03-23 00:10:00,32.0,20.9,29.98,NNW,332,4.0,13.0,63,0.00,,OVC037,0.00,VWS V14.01,2013-03-23 04:10:00,
2013-03-23 00:15:00,31.9,20.8,29.98,NW,307,8.0,13.0,63,0.00,,OVC037,0.00,VWS V14.01,2013-03-23 04:15:00,
2013-03-23 00:20:00,31.9,20.8,29.97,WNW,295,5.0,13.0,63,0.00,,OVC037,0.00,VWS V14.01,2013-03-23 04:20:00,
2013-03-23 00:25:00,31.8,20.7,29.97,WNW,285,3.0,13.0,63,0.00,,OVC037,0.00,VWS V14.01,2013-03-23 04:25:00,
2013-03-23 00:30:00,31.8,20.7,29.97,WNW,290,4.0,17.0,63,0.00,,OVC037,0.00,VWS V14.01,2013-03-23 04:30:00,
2013-03-23 00:35:00,31.8,20.7,29.97,WNW,283,3.0,8.0,63,0.00,,OVC037,0.00,VWS V14.01,2013-03-23 04:35:00,
2013-03-23 00:40:00,31.8,20.3,29.97,West,266,6.0,11.0,62,0.00,,OVC037,0.00,VWS V14.01,2013-03-23 04:40:00,
2013-03-23 00:45:00,31.7,20.6,29.97,WNW,295,8.0,16.0,63,0.00,,OVC037,0.00,VWS V14.01,2013-03-23 04:45:00,
2013-03-23 00:50:00,31.7,20.6,29.97,NW,314,9.0,16.0,63,0.00,,OVC037,0.00,VWS V14.01,2013-03-23 04:50:00,
2013-03-23 00:55:00,31.7,20.6,29.97,West,281,6.0,16.0,63,0.00,,OVC037,0.00,VWS V14.01,2013-03-23 04:55:00,
2013-03-23 01:00:00,31.7,20.9,29.97,WNW,286,3.0,16.0,64,0.00,,OVC037,0.00,VWS V14.01,2013-03-23 05:00:00,
2013-03-23 01:05:00,31.7,20.9,29.97,North,350,5.0,9.0,64,0.00,,OVC037,0.00,VWS V14.01,2013-03-23 05:05:00,
2013-03-23 01:10:00,31.7,20.9,29.97,WNW,295,6.0,10.0,64,0.00,,OVC037,0.00,VWS V14.01,2013-03-23 05:10:00,
2013-03-23 01:15:00,31.7,20.9,29.97,WNW,293,7.0,14.0,64,0.00,,OVC037,0.00,VWS V14.01,2013-03-23 05:15:00,
2013-03-23 01:20:00,31.6,20.8,29.97,NNW,342,3.0,14.0,64,0.00,,OVC037,0.00,VWS V14.01,2013-03-23 05:20:00,
2013-03-23 01:25:00,31.6,20.8,29.97,West,276,7.0,14.0,64,0.00,,OVC037,0.00,VWS V14.01,2013-03-23 05:25:00,
2013-03-23 01:30:00,31.6,20.8,29.97,North,1,3.0,14.0,64,0.00,,OVC037,0.00,VWS V14.01,2013-03-23 05:30:00,
2013-03-23 01:35:00,31.6,21.2,29.97,NNE,15,3.0,13.0,65,0.00,,OVC037,0.00,VWS V14.01,2013-03-23 05:35:00,
2013-03-23 01:40:00,31.6,21.2,29.97,West,280,3.0,13.0,65,0.00,,OVC037,0.00,VWS V14.01,2013-03-23 05:40:00,
2013-03-23 01:45:00,31.5,21.1,29.97,WNW,297,2.0,13.0,65,0.00,,OVC037,0.00,VWS V14.01,2013-03-23 05:45:00,
2013-03-23 01:50:00,31.5,21.1,29.97,West,278,6.0,13.0,65,0.00,,OVC037,0.00,VWS V14.01,2013-03-23 05:50:00,
2013-03-23 01:55:00,31.5,21.5,29.97,WNW,291,7.0,13.0,66,0.00,,OVC037,0.00,VWS V14.01,2013-03-23 05:55:00,
2013-03-23 02:00:00,31.4,21.4,29.97,NW,326,3.0,13.0,66,0.00,,OVC035,0.00,VWS V14.01,2013-03-23 06:00:00,
2013-03-23 02:05:00,31.4,21.4,29.97,West,270,4.0,11.0,66,0.00,,OVC035,0.00,VWS V14.01,2013-03-23 06:05:00,
2013-03-23 02:10:00,31.4,21.4,29.97,NW,308,4.0,11.0,66,0.00,,OVC035,0.00,VWS V14.01,2013-03-23 06:10:00,
2013-03-23 02:15:00,31.4,21.7,29.97,North,354,2.0,11.0,67,0.00,,OVC035,0.00,VWS V14.01,2013-03-23 06:15:00,
2013-03-23 02:20:00,31.4,21.7,29.97,WNW,288,2.0,11.0,67,0.00,,OVC035,0.00,VWS V14.01,2013-03-23 06:20:00,
2013-03-23 02:25:00,31.4,21.7,29.97,WNW,291,5.0,11.0,67,0.00,,OVC035,0.00,VWS V14.01,2013-03-23 06:25:00,
2013-03-23 02:30:00,31.4,21.7,29.97,WNW,296,3.0,11.0,67,0.00,,OVC035,0.00,VWS V14.01,2013-03-23 06:30:00,
2013-03-23 02:35:00,31.4,21.7,29.97,West,276,5.0,8.0,67,0.00,,OVC035,0.00,VWS V14.01,2013-03-23 06:35:00,
2013-03-23 02:40:00,31.4,21.7,29.96,West,281,3.0,8.0,67,0.00,,OVC035,0.00,VWS V14.01,2013-03-23 06:40:00,
2013-03-23 02:45:00,31.4,21.7,29.97,NW,313,1.0,8.0,67,0.00,,OVC035,0.00,VWS V14.01,2013-03-23 06:45:00,
2013-03-23 02:50:00,31.4,21.7,29.96,WNW,295,5.0,8.0,67,0.00,,OVC035,0.00,VWS V14.01,2013-03-23 06:50:00,
2013-03-23 02:55:00,31.4,21.7,29.96,WNW,293,6.0,8.0,67,0.00,,OVC035,0.00,VWS V14.01,2013-03-23 06:55:00,
2013-03-23 03:00:00,31.4,21.7,29.96,WNW,301,6.0,8.0,67,0.00,,OVC035,0.00,VWS V14.01,2013-03-23 07:00:00,
2013-03-23 03:05:00,31.4,21.7,29.96,West,281,6.0,8.0,67,0.00,,OVC035,0.00,VWS V14.01,2013-03-23 07:05:00,
2013-03-23 03:10:00,31.4,21.7,29.96,WNW,283,2.0,8.0,67,0.00,,OVC035,0.00,VWS V14.01,2013-03-23 07:10:00,
2013-03-23 03:15:00,31.4,21.7,29.96,WNW,284,5.0,8.0,67,0.00,,OVC035,0.00,VWS V14.01,2013-03-23 07:15:00,
2013-03-23 03:20:00,31.5,21.8,29.96,West,274,4.0,12.0,67,0.00,,OVC035,0.00,VWS V14.01,2013-03-23 07:20:00,
2013-03-23 03:25:00,31.5,21.8,29.96,WNW,293,6.0,12.0,67,0.00,,OVC035,0.00,VWS V14.01,2013-03-23 07:25:00,
2013-03-23 03:30:00,31.5,21.8,29.96,WNW,285,5.0,12.0,67,0.00,,OVC035,0.00,VWS V14.01,2013-03-23 07:30:00,
2013-03-23 03:35:00,31.5,22.2,29.96,WNW,291,2.0,6.0,68,0.00,,OVC035,0.00,VWS V14.01,2013-03-23 07:35:00,
2013-03-23 03:40:00,31.5,22.2,29.96,WNW,289,6.0,9.0,68,0.00,,OVC035,0.00,VWS V14.01,2013-03-23 07:40:00,
2013-03-23 03:45:00,31.5,21.8,29.96,WNW,300,3.0,11.0,67,0.00,,OVC035,0.00,VWS V14.01,2013-03-23 07:45:00,
2013-03-23 03:50:00,31.5,22.2,29.96,West,270,3.0,11.0,68,0.00,,OVC035,0.00,VWS V14.01,2013-03-23 07:50:00,
2013-03-23 03:55:00,31.5,22.2,29.96,WNW,298,4.0,11.0,68,0.00,,OVC035,0.00,VWS V14.01,2013-03-23 07:55:00,
2013-03-23 04:00:00,31.5,22.2,29.95,WNW,290,6.0,11.0,68,0.00,,OVC035,0.00,VWS V14.01,2013-03-23 08:00:00,
2013-03-23 04:05:00,31.5,22.2,29.95,WNW,298,4.0,7.0,68,0.00,,OVC035,0.00,VWS V14.01,2013-03-23 08:05:00,
2013-03-23 04:10:00,31.6,22.3,29.95,WNW,290,4.0,10.0,68,0.00,,OVC035,0.00,VWS V14.01,2013-03-23 08:10:00,
2013-03-23 04:15:00,31.5,22.2,29.95,WNW,287,1.0,10.0,68,0.00,,OVC035,0.00,VWS V14.01,2013-03-23 08:15:00,
2013-03-23 04:20:00,31.5,22.5,29.95,WNW,293,4.0,10.0,69,0.00,,OVC035,0.00,VWS V14.01,2013-03-23 08:20:00,
2013-03-23 04:25:00,31.5,22.2,29.95,West,281,6.0,10.0,68,0.00,,OVC035,0.00,VWS V14.01,2013-03-23 08:25:00,
2013-03-23 04:30:00,31.5,22.2,29.95,WNW,285,3.0,10.0,68,0.00,,OVC035,0.00,VWS V14.01,2013-03-23 08:30:00,
2013-03-23 04:35:00,31.5,22.5,29.95,WNW,287,4.0,6.0,69,0.00,,OVC035,0.00,VWS V14.01,2013-03-23 08:35:00,
2013-03-23 04:40:00,31.4,22.4,29.95,WNW,293,6.0,7.0,69,0.00,,OVC035,0.00,VWS V14.01,2013-03-23 08:40:00,
2013-03-23 04:45:00,31.4,22.4,29.95,WNW,286,2.0,8.0,69,0.00,,OVC035,0.00,VWS V14.01,2013-03-23 08:45:00,
2013-03-23 04:50:00,31.4,22.4,29.95,WNW,293,5.0,8.0,69,0.00,,OVC035,0.00,VWS V14.01,2013-03-23 08:50:00,
2013-03-23 04:55:00,31.4,22.4,29.95,WNW,298,2.0,9.0,69,0.00,,OVC035,0.00,VWS V14.01,2013-03-23 08:55:00,
2013-03-23 05:00:00,31.4,22.4,29.95,WNW,283,2.0,9.0,69,0.00,,OVC035,0.00,VWS V14.01,2013-03-23 09:00:00,
2013-03-23 05:05:00,31.3,22.7,29.95,West,275,7.0,7.0,70,0.00,,OVC037,0.00,VWS V14.01,2013-03-23 09:05:00,
2013-03-23 05:10:00,31.3,22.7,29.95,WNW,294,4.0,8.0,70,0.00,,OVC037,0.00,VWS V14.01,2013-03-23 09:10:00,
2013-03-23 05:15:00,31.3,22.7,29.95,WNW,293,4.0,8.0,70,0.00,,OVC037,0.00,VWS V14.01,2013-03-23 09:15:00,
2013-03-23 05:20:00,31.2,22.6,29.95,WNW,291,5.0,8.0,70,0.00,,OVC037,0.00,VWS V14.01,2013-03-23 09:20:00,
2013-03-23 05:25:00,31.2,22.2,29.95,WNW,293,4.0,9.0,69,0.00,,OVC037,0.00,VWS V14.01,2013-03-23 09:25:00,
2013-03-23 05:30:00,31.3,22.7,29.95,WNW,288,6.0,9.0,70,0.00,,OVC037,0.00,VWS V14.01,2013-03-23 09:30:00,
2013-03-23 05:35:00,31.2,22.6,29.95,WNW,287,3.0,10.0,70,0.00,,OVC037,0.00,VWS V14.01,2013-03-23 09:35:00,
2013-03-23 05:40:00,31.1,22.5,29.95,WNW,302,8.0,10.0,70,0.00,,OVC037,0.00,VWS V14.01,2013-03-23 09:40:00,
2013-03-23 05:45:00,30.9,22.6,29.95,NW,307,3.0,10.0,71,0.00,,OVC037,0.00,VWS V14.01,2013-03-23 09:45:00,
2013-03-23 05:50:00,30.8,22.5,29.96,WNW,293,6.0,10.0,71,0.00,,OVC037,0.00,VWS V14.01,2013-03-23 09:50:00,
2013-03-23 05:55:00,30.5,22.6,29.96,NW,321,5.0,10.0,72,0.00,,OVC037,0.00,VWS V14.01,2013-03-23 09:55:00,
2013-03-23 06:00:00,30.4,22.5,29.96,WNW,290,8.0,10.0,72,0.00,,OVC037,0.00,VWS V14.01,2013-03-23 10:00:00,
2013-03-23 06:05:00,30.2,22.3,29.96,WNW,290,4.0,7.0,72,0.00,,OVC035,0.00,VWS V14.01,2013-03-23 10:05:00,
2013-03-23 06:10:00,30.1,22.5,29.96,WNW,289,4.0,7.0,73,0.00,,OVC035,0.00,VWS V14.01,2013-03-23 10:10:00,
2013-03-23 06:15:00,29.9,22.3,29.96,WNW,290,4.0,7.0,73,0.00,,OVC035,0.00,VWS V14.01,2013-03-23 10:15:00,
2013-03-23 06:20:00,29.7,22.4,29.96,WNW,294,3.0,7.0,74,0.00,,OVC035,0.00,VWS V14.01,2013-03-23 10:20:00,
2013-03-23 06:25:00,29.6,22.4,29.96,WNW,286,4.0,7.0,74,0.00,,OVC035,0.00,VWS V14.01,2013-03-23 10:25:00,
2013-03-23 06:30:00,29.4,22.1,29.96,West,275,2.0,7.0,74,0.00,,OVC035,0.00,VWS V14.01,2013-03-23 10:30:00,
2013-03-23 06:35:00,29.3,22.1,29.96,WNW,285,2.0,6.0,74,0.00,,OVC035,0.00,VWS V14.01,2013-03-23 10:35:00,
2013-03-23 06:40:00,29.2,22.3,29.96,WNW,293,3.0,6.0,75,0.00,,OVC035,0.00,VWS V14.01,2013-03-23 10:40:00,
2013-03-23 06:45:00,29.1,22.2,29.96,WNW,294,5.0,6.0,75,0.00,,OVC035,0.00,VWS V14.01,2013-03-23 10:45:00,
2013-03-23 06:50:00,29.0,22.4,29.97,WNW,295,3.0,6.0,76,0.00,,OVC035,0.00,VWS V14.01,2013-03-23 10:50:00,
2013-03-23 06:54:00,28.9,22.3,29.96,WNW,285,2.0,6.0,76,0.00,,OVC035,0.00,VWS V14.01,2013-03-23 10:54:00,
2013-03-23 06:59:00,28.8,22.2,29.96,WNW,283,2.0,6.0,76,0.00,,OVC035,0.00,VWS V14.01,2013-03-23 10:59:00,
2013-03-23 07:04:00,28.8,21.9,29.96,West,266,3.0,6.0,75,0.00,,CLR,0.00,VWS V14.01,2013-03-23 11:04:00,
2013-03-23 07:09:00,28.7,21.8,29.96,WNW,293,3.0,6.0,75,0.00,,CLR,0.00,VWS V14.01,2013-03-23 11:09:00,
2013-03-23 07:14:00,28.6,21.7,29.96,WNW,285,3.0,6.0,75,0.00,,CLR,0.00,VWS V14.01,2013-03-23 11:14:00,
2013-03-23 07:19:00,28.5,21.9,29.96,West,281,4.0,6.0,76,0.00,,CLR,0.00,VWS V14.01,2013-03-23 11:19:00,
2013-03-23 07:24:00,28.5,21.9,29.96,WNW,283,3.0,6.0,76,0.00,,CLR,0.00,VWS V14.01,2013-03-23 11:24:00,
2013-03-23 07:29:00,28.6,22.0,29.96,WNW,288,4.0,6.0,76,0.00,,CLR,0.00,VWS V14.01,2013-03-23 11:29:00,
2013-03-23 07:34:00,28.8,21.9,29.96,WNW,287,2.0,5.0,75,0.00,,CLR,0.00,VWS V14.01,2013-03-23 11:34:00,
2013-03-23 07:39:00,28.9,22.0,29.96,West,281,2.0,8.0,75,0.00,,CLR,0.00,VWS V14.01,2013-03-23 11:39:00,
2013-03-23 07:44:00,29.0,22.1,29.97,WNW,288,3.0,8.0,75,0.00,,CLR,0.00,VWS V14.01,2013-03-23 11:44:00,
2013-03-23 07:49:00,29.3,22.4,29.97,West,280,3.0,8.0,75,0.00,,CLR,0.00,VWS V14.01,2013-03-23 11:49:00,
2013-03-23 07:54:00,29.6,22.7,29.97,WNW,290,2.0,8.0,75,0.00,,CLR,0.00,VWS V14.01,2013-03-23 11:54:00,
2013-03-23 07:59:00,29.9,22.6,29.96,WNW,294,5.0,10.0,74,0.00,,CLR,0.00,VWS V14.01,2013-03-23 11:59:00,
2013-03-23 08:04:00,30.2,22.9,29.97,NW,311,8.0,8.0,74,0.00,,FEW035,0.00,VWS V14.01,2013-03-23 12:04:00,
2013-03-23 08:09:00,30.5,22.9,29.97,WNW,285,5.0,13.0,73,0.00,,FEW035,0.00,VWS V14.01,2013-03-23 12:09:00,
2013-03-23 08:15:00,30.8,23.2,29.97,NW,315,7.0,13.0,73,0.00,,FEW035,0.00,VWS V14.01,2013-03-23 12:15:00,
2013-03-23 08:20:00,31.1,23.1,29.97,WNW,290,9.0,13.0,72,0.00,,FEW035,0.00,VWS V14.01,2013-03-23 12:20:00,
2013-03-23 08:25:00,31.4,23.1,29.97,NW,305,9.0,13.0,71,0.00,,FEW035,0.00,VWS V14.01,2013-03-23 12:25:00,
2013-03-23 08:30:00,31.7,23.0,29.96,NW,319,5.0,13.0,70,0.00,,FEW035,0.00,VWS V14.01,2013-03-23 12:30:00,
2013-03-23 08:35:00,32.1,23.4,29.96,WNW,287,9.0,14.0,70,0.00,,FEW035,0.00,VWS V14.01,2013-03-23 12:35:00,
2013-03-23 08:40:00,32.3,23.3,29.96,WNW,287,6.0,14.0,69,0.00,,FEW035,0.00,VWS V14.01,2013-03-23 12:40:00,
2013-03-23 08:45:00,32.5,23.5,29.96,West,279,3.0,14.0,69,0.00,,FEW035,0.00,VWS V14.01,2013-03-23 12:45:00,
2013-03-23 08:50:00,32.9,23.5,29.96,West,278,5.0,14.0,68,0.00,,FEW035,0.00,VWS V14.01,2013-03-23 12:50:00,
2013-03-23 08:55:00,33.1,23.4,29.96,WNW,293,7.0,14.0,67,0.00,,FEW035,0.00,VWS V14.01,2013-03-23 12:55:00,
2013-03-23 09:00:00,33.4,23.6,29.96,WNW,283,7.0,14.0,67,0.00,,CLR,0.00,VWS V14.01,2013-03-23 13:00:00,
2013-03-23 09:05:00,33.7,23.9,29.96,WNW,284,5.0,12.0,67,0.00,,CLR,0.00,VWS V14.01,2013-03-23 13:05:00,
2013-03-23 09:10:00,34.3,24.1,29.96,WNW,293,4.0,12.0,66,0.00,,CLR,0.00,VWS V14.01,2013-03-23 13:10:00,
2013-03-23 09:15:00,34.6,24.1,29.96,NE,52,5.0,12.0,65,0.00,,CLR,0.00,VWS V14.01,2013-03-23 13:15:00,
2013-03-23 09:20:00,34.6,24.1,29.96,WNW,296,4.0,13.0,65,0.00,,CLR,0.00,VWS V14.01,2013-03-23 13:20:00,
2013-03-23 09:25:00,34.9,24.3,29.96,WNW,296,4.0,14.0,65,0.00,,CLR,0.00,VWS V14.01,2013-03-23 13:25:00,
2013-03-23 09:30:00,35.6,24.6,29.96,WNW,286,9.0,14.0,64,0.00,,CLR,0.00,VWS V14.01,2013-03-23 13:30:00,
2013-03-23 09:35:00,35.6,23.9,29.96,WNW,294,4.0,12.0,62,0.00,,CLR,0.00,VWS V14.01,2013-03-23 13:35:00,
2013-03-23 09:40:00,36.0,23.9,29.96,WNW,293,6.0,13.0,61,0.00,,CLR,0.00,VWS V14.01,2013-03-23 13:40:00,
2013-03-23 09:45:00,35.9,24.5,29.96,WSW,238,14.0,14.0,63,0.00,,CLR,0.00,VWS V14.01,2013-03-23 13:45:00,
2013-03-23 09:50:00,35.8,24.5,29.96,WNW,289,5.0,14.0,63,0.00,,CLR,0.00,VWS V14.01,2013-03-23 13:50:00,
2013-03-23 09:55:00,35.9,24.5,29.96,WNW,295,8.0,14.0,63,0.00,,CLR,0.00,VWS V14.01,2013-03-23 13:55:00,
2013-03-23 10:00:00,35.9,24.5,29.96,NW,319,7.0,17.0,63,0.00,,FEW037,0.00,VWS V14.01,2013-03-23 14:00:00,
2013-03-23 10:05:00,35.9,24.9,29.96,WNW,289,4.0,12.0,64,0.00,,FEW037,0.00,VWS V14.01,2013-03-23 14:05:00,
2013-03-23 10:10:00,36.4,24.6,29.96,SW,218,7.0,13.0,62,0.00,,FEW037,0.00,VWS V14.01,2013-03-23 14:10:00,
2013-03-23 10:15:00,36.4,25.0,29.96,WNW,284,9.0,14.0,63,0.00,,FEW037,0.00,VWS V14.01,2013-03-23 14:15:00,
2013-03-23 10:20:00,36.4,24.6,29.96,West,278,8.0,15.0,62,0.00,,FEW037,0.00,VWS V14.01,2013-03-23 14:20:00,
2013-03-23 10:25:00,36.6,24.0,29.97,NNE,29,2.0,15.0,60,0.00,,FEW037,0.00,VWS V14.01,2013-03-23 14:25:00,
2013-03-23 10:30:00,37.8,24.8,29.97,NNW,334,10.0,15.0,59,0.00,,FEW037,0.00,VWS V14.01,2013-03-23 14:30:00,
2013-03-23 10:35:00,37.4,24.8,29.97,WNW,295,7.0,12.0,60,0.00,,FEW037,0.00,VWS V14.01,2013-03-23 14:35:00,
2013-03-23 10:40:00,37.2,23.8,29.97,WNW,283,4.0,13.0,58,0.00,,FEW037,0.00,VWS V14.01,2013-03-23 14:40:00,
2013-03-23 10:45:00,37.4,23.6,29.97,SW,224,12.0,20.0,57,0.00,,FEW037,0.00,VWS V14.01,2013-03-23 14:45:00,
2013-03-23 10:50:00,37.3,23.1,29.97,NE,36,4.0,20.0,56,0.00,,FEW037,0.00,VWS V14.01,2013-03-23 14:50:00,
2013-03-23 10:55:00,37.8,24.0,29.98,NW,307,1.0,20.0,57,0.00,,FEW037,0.00,VWS V14.01,2013-03-23 14:55:00,
2013-03-23 11:00:00,38.1,23.8,29.98,WNW,284,7.0,20.0,56,0.00,,FEW037,0.00,VWS V14.01,2013-03-23 15:00:00,
2013-03-23 11:05:00,38.0,23.3,29.97,WNW,293,5.0,12.0,55,0.00,,BKN042,0.00,VWS V14.01,2013-03-23 15:05:00,
2013-03-23 11:10:00,37.8,23.1,29.97,NW,317,6.0,14.0,55,0.00,,BKN042,0.00,VWS V14.01,2013-03-23 15:10:00,
2013-03-23 11:15:00,38.1,23.4,29.97,WNW,290,4.0,14.0,55,0.00,,BKN042,0.00,VWS V14.01,2013-03-23 15:15:00,
2013-03-23 11:20:00,38.1,22.9,29.97,West,264,12.0,16.0,54,0.00,,BKN042,0.00,VWS V14.01,2013-03-23 15:20:00,
2013-03-23 11:25:00,38.0,23.3,29.97,WNW,300,5.0,16.0,55,0.00,,BKN042,0.00,VWS V14.01,2013-03-23 15:25:00,
2013-03-23 11:30:00,38.3,22.7,29.97,West,269,9.0,16.0,53,0.00,,BKN042,0.00,VWS V14.01,2013-03-23 15:30:00,
2013-03-23 11:35:00,38.4,23.2,29.97,East,87,2.0,9.0,54,0.00,,BKN042,0.00,VWS V14.01,2013-03-23 15:35:00,
2013-03-23 11:40:00,38.5,22.4,29.97,WNW,294,4.0,13.0,52,0.00,,BKN042,0.00,VWS V14.01,2013-03-23 15:40:00,
2013-03-23 11:45:00,38.6,22.5,29.97,ENE,57,5.0,13.0,52,0.00,,BKN042,0.00,VWS V14.01,2013-03-23 15:45:00,
2013-03-23 11:50:00,38.5,22.4,29.97,West,281,6.0,18.0,52,0.00,,BKN042,0.00,VWS V14.01,2013-03-23 15:50:00,
2013-03-23 11:55:00,38.6,22.5,29.97,WNW,287,7.0,18.0,52,0.00,,BKN042,0.00,VWS V14.01,2013-03-23 15:55:00,
2013-03-23 12:00:00,38.7,22.6,29.97,WNW,287,8.0,18.0,52,0.00,,OVC048,0.00,VWS V14.01,2013-03-23 16:00:00,
2013-03-23 12:05:00,38.9,22.8,29.97,North,4,2.0,11.0,52,0.00,,OVC048,0.00,VWS V14.01,2013-03-23 16:05:00,
2013-03-23 12:10:00,39.0,22.9,29.97,NNW,347,6.0,11.0,52,0.00,,OVC048,0.00,VWS V14.01,2013-03-23 16:10:00,
2013-03-23 12:15:00,39.1,23.0,29.97,West,274,11.0,12.0,52,0.00,,OVC048,0.00,VWS V14.01,2013-03-23 16:15:00,
2013-03-23 12:20:00,39.0,22.4,29.97,WNW,290,4.0,13.0,51,0.00,,OVC048,0.00,VWS V14.01,2013-03-23 16:20:00,
2013-03-23 12:25:00,39.2,22.6,29.97,West,280,8.0,13.0,51,0.00,,OVC048,0.00,VWS V14.01,2013-03-23 16:25:00,
2013-03-23 12:30:00,39.3,22.7,29.97,WNW,285,10.0,13.0,51,0.00,,OVC048,0.00,VWS V14.01,2013-03-23 16:30:00,
2013-03-23 12:35:00,39.9,23.7,29.96,WNW,288,2.0,6.0,52,0.00,,OVC048,0.00,VWS V14.01,2013-03-23 16:35:00,
2013-03-23 12:40:00,40.0,22.4,29.96,NE,44,3.0,11.0,49,0.00,,OVC048,0.00,VWS V14.01,2013-03-23 16:40:00,
2013-03-23 12:45:00,40.2,23.1,29.96,WNW,294,2.0,11.0,50,0.00,,OVC048,0.00,VWS V14.01,2013-03-23 16:45:00,
2013-03-23 12:50:00,40.3,22.7,29.96,NW,309,6.0,14.0,49,0.00,,OVC048,0.00,VWS V14.01,2013-03-23 16:50:00,
2013-03-23 12:55:00,40.4,23.2,29.96,West,276,0.0,16.0,50,0.00,,OVC048,0.00,VWS V14.01,2013-03-23 16:55:00,
2013-03-23 13:00:00,40.8,23.1,29.96,WNW,290,6.0,16.0,49,0.00,,OVC055,0.00,VWS V14.01,2013-03-23 17:00:00,
2013-03-23 13:05:00,40.6,23.0,29.96,WNW,291,13.0,16.0,49,0.00,,OVC055,0.00,VWS V14.01,2013-03-23 17:05:00,
2013-03-23 13:10:00,40.4,23.2,29.96,West,270,7.0,16.0,50,0.00,,OVC055,0.00,VWS V14.01,2013-03-23 17:10:00,
2013-03-23 13:15:00,40.5,23.3,29.96,NW,304,14.0,16.0,50,0.00,,OVC055,0.00,VWS V14.01,2013-03-23 17:15:00,
2013-03-23 13:20:00,40.7,22.1,29.96,West,270,8.0,16.0,47,0.00,,OVC055,0.00,VWS V14.01,2013-03-23 17:20:00,
2013-03-23 13:25:00,40.9,22.2,29.96,WNW,295,9.0,16.0,47,0.00,,OVC055,0.00,VWS V14.01,2013-03-23 17:25:00,
2013-03-23 13:30:00,41.0,22.3,29.96,WNW,284,4.0,18.0,47,0.00,,OVC055,0.00,VWS V14.01,2013-03-23 17:30:00,
2013-03-23 13:35:00,41.2,22.0,29.96,NW,324,3.0,10.0,46,0.00,,OVC055,0.00,VWS V14.01,2013-03-23 17:35:00,
2013-03-23 13:40:00,41.5,22.3,29.96,North,356,1.0,10.0,46,0.00,,OVC055,0.00,VWS V14.01,2013-03-23 17:40:00,
2013-03-23 13:45:00,41.2,22.0,29.95,NE,44,4.0,13.0,46,0.00,,OVC055,0.00,VWS V14.01,2013-03-23 17:45:00,
2013-03-23 13:50:00,40.9,21.7,29.96,WNW,293,4.0,21.0,46,0.00,,OVC055,0.00,VWS V14.01,2013-03-23 17:50:00,
2013-03-23 13:55:00,41.0,21.3,29.95,WNW,290,6.0,21.0,45,0.00,,OVC055,0.00,VWS V14.01,2013-03-23 17:55:00,
2013-03-23 14:00:00,41.1,21.9,29.95,WNW,291,10.0,21.0,46,0.00,,OVC055,0.00,VWS V14.01,2013-03-23 18:00:00,
2013-03-23 14:05:00,40.7,21.0,29.95,NNW,347,4.0,17.0,45,0.00,,OVC055,0.00,VWS V14.01,2013-03-23 18:05:00,
2013-03-23 14:10:00,41.1,21.9,29.95,North,354,7.0,17.0,46,0.00,,OVC055,0.00,VWS V14.01,2013-03-23 18:10:00,
2013-03-23 14:15:00,41.1,21.9,29.95,NE,49,3.0,17.0,46,0.00,,OVC055,0.00,VWS V14.01,2013-03-23 18:15:00,
2013-03-23 14:20:00,41.2,22.0,29.95,WSW,257,8.0,17.0,46,0.00,,OVC055,0.00,VWS V14.01,2013-03-23 18:20:00,
2013-03-23 14:25:00,41.4,22.2,29.95,NW,314,3.0,17.0,46,0.00,,OVC055,0.00,VWS V14.01,2013-03-23 18:25:00,
2013-03-23 14:30:00,41.7,22.5,29.95,WNW,294,6.0,19.0,46,0.00,,OVC055,0.00,VWS V14.01,2013-03-23 18:30:00,
2013-03-23 14:35:00,41.7,22.5,29.95,North,4,2.0,15.0,46,0.00,,OVC055,0.00,VWS V14.01,2013-03-23 18:35:00,
2013-03-23 14:40:00,41.5,21.8,29.95,WSW,252,7.0,15.0,45,0.00,,OVC055,0.00,VWS V14.01,2013-03-23 18:40:00,
2013-03-23 14:45:00,41.5,22.3,29.95,NW,309,2.0,15.0,46,0.00,,OVC055,0.00,VWS V14.01,2013-03-23 18:45:00,
2013-03-23 14:50:00,42.2,22.9,29.94,West,261,7.0,16.0,46,0.00,,OVC055,0.00,VWS V14.01,2013-03-23 18:50:00,
2013-03-23 14:55:00,43.2,23.3,29.94,WNW,302,6.0,17.0,45,0.00,,OVC055,0.00,VWS V14.01,2013-03-23 18:55:00,
2013-03-23 15:00:00,43.7,21.6,29.94,West,269,6.0,17.0,41,0.00,,OVC055,0.00,VWS V14.01,2013-03-23 19:00:00,
2013-03-23 15:05:00,43.4,21.9,29.95,NNW,330,5.0,16.0,42,0.00,,OVC055,0.00,VWS V14.01,2013-03-23 19:05:00,
2013-03-23 15:10:00,42.9,21.4,29.95,NNW,335,6.0,16.0,42,0.00,,OVC055,0.00,VWS V14.01,2013-03-23 19:10:00,
2013-03-23 15:15:00,42.9,22.5,29.94,WNW,284,3.0,16.0,44,0.00,,OVC055,0.00,VWS V14.01,2013-03-23 19:15:00,
2013-03-23 15:20:00,43.5,22.5,29.94,NNW,334,1.0,16.0,43,0.00,,OVC055,0.00,VWS V14.01,2013-03-23 19:20:00,
2013-03-23 15:25:00,43.7,22.1,29.94,West,281,7.0,16.0,42,0.00,,OVC055,0.00,VWS V14.01,2013-03-23 19:25:00,
2013-03-23 15:30:00,43.0,21.5,29.94,NW,319,5.0,16.0,42,0.00,,OVC055,0.00,VWS V14.01,2013-03-23 19:30:00,
2013-03-23 15:35:00,43.2,22.8,29.94,NW,304,13.0,17.0,44,0.00,,OVC055,0.00,VWS V14.01,2013-03-23 19:35:00,
2013-03-23 15:40:00,43.7,22.7,29.94,WNW,287,11.0,17.0,43,0.00,,OVC055,0.00,VWS V14.01,2013-03-23 19:40:00,
2013-03-23 15:45:00,43.7,21.0,29.94,WNW,300,8.0,20.0,40,0.00,,OVC055,0.00,VWS V14.01,2013-03-23 19:45:00,
2013-03-23 15:50:00,44.0,21.2,29.94,WNW,302,10.0,20.0,40,0.00,,OVC055,0.00,VWS V14.01,2013-03-23 19:50:00,
2013-03-23 15:55:00,43.7,22.1,29.94,NNE,31,2.0,20.0,42,0.00,,OVC055,0.00,VWS V14.01,2013-03-23 19:55:00,
2013-03-23 16:00:00,44.5,22.3,29.94,West,278,11.0,20.0,41,0.00,,OVC060,0.00,VWS V14.01,2013-03-23 20:00:00,
2013-03-23 16:05:00,44.8,22.0,29.94,WNW,302,17.0,26.0,40,0.00,,OVC060,0.00,VWS V14.01,2013-03-23 20:05:00,
2013-03-23 16:10:00,44.5,21.1,29.94,West,267,12.0,26.0,39,0.00,,OVC060,0.00,VWS V14.01,2013-03-23 20:10:00,
2013-03-23 16:15:00,43.8,21.1,29.94,WNW,284,12.0,26.0,40,0.00,,OVC060,0.00,VWS V14.01,2013-03-23 20:15:00,
2013-03-23 16:20:00,43.7,21.0,29.93,WNW,285,9.0,26.0,40,0.00,,OVC060,0.00,VWS V14.01,2013-03-23 20:20:00,
2013-03-23 16:25:00,43.8,21.6,29.94,WNW,293,2.0,26.0,41,0.00,,OVC060,0.00,VWS V14.01,2013-03-23 20:25:00,
2013-03-23 16:30:00,43.7,21.0,29.94,WNW,287,8.0,26.0,40,0.00,,OVC060,0.00,VWS V14.01,2013-03-23 20:30:00,
2013-03-23 16:35:00,43.2,21.1,29.94,WSW,248,10.0,15.0,41,0.00,,OVC060,0.00,VWS V14.01,2013-03-23 20:35:00,
2013-03-23 16:40:00,42.7,21.2,29.94,West,276,12.0,15.0,42,0.00,,OVC060,0.00,VWS V14.01,2013-03-23 20:40:00,
2013-03-23 16:45:00,42.6,21.1,29.94,WNW,297,3.0,15.0,42,0.00,,OVC060,0.00,VWS V14.01,2013-03-23 20:45:00,
2013-03-23 16:50:00,42.4,21.5,29.94,NNE,27,4.0,15.0,43,0.00,,OVC060,0.00,VWS V14.01,2013-03-23 20:50:00,
2013-03-23 16:55:00,42.5,21.6,29.94,North,357,4.0,15.0,43,0.00,,OVC060,0.00,VWS V14.01,2013-03-23 20:55:00,
2013-03-23 17:00:00,42.1,20.7,29.94,West,269,9.0,15.0,42,0.00,,OVC060,0.00,VWS V14.01,2013-03-23 21:00:00,
2013-03-23 17:05:00,42.3,21.4,29.94,NNW,344,9.0,9.0,43,0.00,,OVC060,0.00,VWS V14.01,2013-03-23 21:05:00,
2013-03-23 17:10:00,42.2,20.8,29.94,NNE,15,3.0,10.0,42,0.00,,OVC060,0.00,VWS V14.01,2013-03-23 21:10:00,
2013-03-23 17:15:00,42.3,21.4,29.94,WNW,287,3.0,12.0,43,0.00,,OVC060,0.00,VWS V14.01,2013-03-23 21:15:00,
2013-03-23 17:20:00,42.9,21.4,29.94,NE,34,6.0,13.0,42,0.00,,OVC060,0.00,VWS V14.01,2013-03-23 21:20:00,
2013-03-23 17:25:00,42.9,21.4,29.94,NNW,336,6.0,13.0,42,0.00,,OVC060,0.00,VWS V14.01,2013-03-23 21:25:00,
2013-03-23 17:30:00,43.9,22.3,29.94,NNW,327,12.0,13.0,42,0.00,,BKN060,0.00,VWS V14.01,2013-03-23 21:30:00,
2013-03-23 17:35:00,43.8,21.1,29.94,North,352,12.0,18.0,40,0.00,,BKN060,0.00,VWS V14.01,2013-03-23 21:35:00,
2013-03-23 17:40:00,43.7,21.0,29.94,NE,52,6.0,18.0,40,0.00,,BKN060,0.00,VWS V14.01,2013-03-23 21:40:00,
2013-03-23 17:45:00,43.5,21.4,29.94,NNE,23,9.0,18.0,41,0.00,,BKN060,0.00,VWS V14.01,2013-03-23 21:45:00,
2013-03-23 17:50:00,43.3,21.2,29.94,NW,307,2.0,18.0,41,0.00,,BKN060,0.00,VWS V14.01,2013-03-23 21:50:00,
2013-03-23 17:55:00,43.2,21.1,29.95,NE,34,2.0,18.0,41,0.00,,BKN060,0.00,VWS V14.01,2013-03-23 21:55:00,
2013-03-23 18:00:00,42.8,21.3,29.95,North,6,4.0,18.0,42,0.00,,CLR,0.00,VWS V14.01,2013-03-23 22:00:00,
2013-03-23 18:05:00,42.8,20.8,29.95,NW,314,3.0,9.0,41,0.00,,CLR,0.00,VWS V14.01,2013-03-23 22:05:00,
2013-03-23 18:10:00,42.8,20.8,29.95,North,9,2.0,13.0,41,0.00,,CLR,0.00,VWS V14.01,2013-03-23 22:10:00,
2013-03-23 18:15:00,42.9,20.8,29.95,WNW,290,3.0,13.0,41,0.00,,CLR,0.00,VWS V14.01,2013-03-23 22:15:00,
2013-03-23 18:20:00,43.3,21.2,29.95,WNW,301,6.0,13.0,41,0.00,,CLR,0.00,VWS V14.01,2013-03-23 22:20:00,
2013-03-23 18:25:00,43.1,20.4,29.95,North,4,7.0,13.0,40,0.00,,CLR,0.00,VWS V14.01,2013-03-23 22:25:00,
2013-03-23 18:30:00,42.8,20.8,29.95,NE,39,2.0,13.0,41,0.00,,CLR,0.00,VWS V14.01,2013-03-23 22:30:00,
2013-03-23 18:35:00,42.7,20.7,29.95,WNW,296,6.0,10.0,41,0.00,,CLR,0.00,VWS V14.01,2013-03-23 22:35:00,
2013-03-23 18:40:00,42.4,20.4,29.95,NNE,25,8.0,12.0,41,0.00,,CLR,0.00,VWS V14.01,2013-03-23 22:40:00,
2013-03-23 18:45:00,42.1,20.7,29.96,NE,46,1.0,12.0,42,0.00,,CLR,0.00,VWS V14.01,2013-03-23 22:45:00,
2013-03-23 18:50:00,41.7,20.3,29.96,NE,44,3.0,12.0,42,0.00,,CLR,0.00,VWS V14.01,2013-03-23 22:50:00,
2013-03-23 18:55:00,41.4,20.6,29.96,NNE,25,2.0,12.0,43,0.00,,CLR,0.00,VWS V14.01,2013-03-23 22:55:00,
2013-03-23 19:00:00,41.0,20.2,29.96,NE,35,8.0,12.0,43,0.00,,CLR,0.00,VWS V14.01,2013-03-23 23:00:00,
2013-03-23 19:05:00,40.4,20.2,29.96,North,359,5.0,9.0,44,0.00,,CLR,0.00,VWS V14.01,2013-03-23 23:05:00,
2013-03-23 19:10:00,40.0,20.4,29.97,NNE,32,4.0,9.0,45,0.00,,CLR,0.00,VWS V14.01,2013-03-23 23:10:00,
2013-03-23 19:15:00,39.7,20.6,29.97,NNW,347,4.0,9.0,46,0.00,,CLR,0.00,VWS V14.01,2013-03-23 23:15:00,
2013-03-23 19:20:00,39.3,20.8,29.98,NNE,16,0.0,9.0,47,0.00,,CLR,0.00,VWS V14.01,2013-03-23 23:20:00,
2013-03-23 19:25:00,39.1,20.6,29.98,North,11,0.0,9.0,47,0.00,,CLR,0.00,VWS V14.01,2013-03-23 23:25:00,
2013-03-23 19:30:00,38.9,20.4,29.98,NNE,23,6.0,9.0,47,0.00,,CLR,0.00,VWS V14.01,2013-03-23 23:30:00,
2013-03-23 19:35:00,38.7,20.2,29.98,ENE,67,3.0,7.0,47,0.00,,CLR,0.00,VWS V14.01,2013-03-23 23:35:00,
2013-03-23 19:40:00,38.5,20.0,29.98,NNW,335,0.0,7.0,47,0.00,,CLR,0.00,VWS V14.01,2013-03-23 23:40:00,
2013-03-23 19:45:00,38.3,20.4,29.98,WNW,287,2.0,7.0,48,0.00,,CLR,0.00,VWS V14.01,2013-03-23 23:45:00,
2013-03-23 19:50:00,38.1,20.2,29.99,North,6,1.0,7.0,48,0.00,,CLR,0.00,VWS V14.01,2013-03-23 23:50:00,
2013-03-23 19:55:00,37.9,20.0,29.99,NNE,15,0.0,7.0,48,0.00,,CLR,0.00,VWS V14.01,2013-03-23 23:55:00,
2013-03-23 20:00:00,37.8,19.9,29.99,North,6,3.0,7.0,48,0.00,,CLR,0.00,VWS V14.01,2013-03-24 00:00:00,
2013-03-23 20:05:00,37.8,20.4,29.99,NNE,29,2.0,6.0,49,0.00,,BKN060,0.00,VWS V14.01,2013-03-24 00:05:00,
2013-03-23 20:10:00,37.9,20.0,29.99,NNE,18,1.0,8.0,48,0.00,,BKN060,0.00,VWS V14.01,2013-03-24 00:10:00,
2013-03-23 20:15:00,37.9,20.0,29.99,North,5,4.0,8.0,48,0.00,,BKN060,0.00,VWS V14.01,2013-03-24 00:15:00,
2013-03-23 20:20:00,37.8,19.9,29.99,NNE,19,4.0,10.0,48,0.00,,BKN060,0.00,VWS V14.01,2013-03-24 00:20:00,
2013-03-23 20:25:00,37.7,19.8,29.99,West,281,1.0,10.0,48,0.00,,BKN060,0.00,VWS V14.01,2013-03-24 00:25:00,
2013-03-23 20:30:00,37.6,19.7,29.98,NNE,21,2.0,10.0,48,0.00,,BKN060,0.00,VWS V14.01,2013-03-24 00:30:00,
2013-03-23 20:35:00,37.4,19.5,29.99,North,352,1.0,8.0,48,0.00,,BKN060,0.00,VWS V14.01,2013-03-24 00:35:00,
2013-03-23 20:40:00,37.3,19.4,29.99,NW,316,1.0,8.0,48,0.00,,BKN060,0.00,VWS V14.01,2013-03-24 00:40:00,
2013-03-23 20:45:00,37.1,19.7,29.99,NW,315,2.0,8.0,49,0.00,,BKN060,0.00,VWS V14.01,2013-03-24 00:45:00,
2013-03-23 20:50:00,37.0,20.1,29.99,WNW,295,3.0,8.0,50,0.00,,BKN060,0.00,VWS V14.01,2013-03-24 00:50:00,
2013-03-23 20:55:00,36.8,19.9,29.99,WNW,295,0.0,8.0,50,0.00,,BKN060,0.00,VWS V14.01,2013-03-24 00:55:00,
2013-03-23 21:00:00,36.5,20.1,29.99,WNW,294,2.0,8.0,51,0.00,,BKN060,0.00,VWS V14.01,2013-03-24 01:00:00,
2013-03-23 21:05:00,36.4,20.5,29.99,WNW,290,1.0,3.0,52,0.00,,BKN060,0.00,VWS V14.01,2013-03-24 01:05:00,
2013-03-23 21:10:00,36.3,20.4,29.99,WNW,293,1.0,3.0,52,0.00,,BKN060,0.00,VWS V14.01,2013-03-24 01:10:00,
2013-03-23 21:15:00,36.2,20.3,29.99,WNW,284,0.0,5.0,52,0.00,,BKN060,0.00,VWS V14.01,2013-03-24 01:15:00,
2013-03-23 21:20:00,36.1,20.2,29.99,WNW,287,1.0,5.0,52,0.00,,BKN060,0.00,VWS V14.01,2013-03-24 01:20:00,
2013-03-23 21:25:00,36.0,20.1,29.99,WNW,289,2.0,7.0,52,0.00,,BKN060,0.00,VWS V14.01,2013-03-24 01:25:00,
2013-03-23 21:30:00,36.0,20.1,29.99,WNW,298,2.0,7.0,52,0.00,,BKN060,0.00,VWS V14.01,2013-03-24 01:30:00,
2013-03-23 21:35:00,35.7,20.3,30.00,WNW,287,3.0,4.0,53,0.00,,BKN060,0.00,VWS V14.01,2013-03-24 01:35:00,
2013-03-23 21:40:00,35.5,20.1,30.00,WNW,295,2.0,5.0,53,0.00,,BKN060,0.00,VWS V14.01,2013-03-24 01:40:00,
2013-03-23 21:45:00,35.3,20.3,29.99,WNW,293,4.0,5.0,54,0.00,,BKN060,0.00,VWS V14.01,2013-03-24 01:45:00,
2013-03-23 21:50:00,35.2,20.2,30.00,WNW,283,6.0,6.0,54,0.00,,BKN060,0.00,VWS V14.01,2013-03-24 01:50:00,
2013-03-23 21:55:00,35.0,20.5,30.00,WNW,286,3.0,6.0,55,0.00,,BKN060,0.00,VWS V14.01,2013-03-24 01:55:00,
2013-03-23 22:00:00,34.8,20.3,30.00,WNW,291,4.0,6.0,55,0.00,,BKN060,0.00,VWS V14.01,2013-03-24 02:00:00,
2013-03-23 22:05:00,34.7,20.6,30.00,WNW,283,5.0,6.0,56,0.00,,CLR,0.00,VWS V14.01,2013-03-24 02:05:00,
2013-03-23 22:10:00,34.5,20.9,30.00,WNW,287,5.0,6.0,57,0.00,,CLR,0.00,VWS V14.01,2013-03-24 02:10:00,
2013-03-23 22:15:00,34.3,20.7,30.01,WNW,295,3.0,6.0,57,0.00,,CLR,0.00,VWS V14.01,2013-03-24 02:15:00,
2013-03-23 22:20:00,34.1,20.9,30.01,WNW,293,3.0,6.0,58,0.00,,CLR,0.00,VWS V14.01,2013-03-24 02:20:00,
2013-03-23 22:25:00,34.0,20.8,30.01,West,276,4.0,6.0,58,0.00,,CLR,0.00,VWS V14.01,2013-03-24 02:25:00,
2013-03-23 22:30:00,33.8,20.6,30.01,WNW,291,4.0,6.0,58,0.00,,CLR,0.00,VWS V14.01,2013-03-24 02:30:00,
2013-03-23 22:35:00,33.7,20.9,30.01,WNW,285,5.0,6.0,59,0.00,,CLR,0.00,VWS V14.01,2013-03-24 02:35:00,
2013-03-23 22:40:00,33.8,21.4,30.01,WNW,294,3.0,6.0,60,0.00,,CLR,0.00,VWS V14.01,2013-03-24 02:40:00,
2013-03-23 22:45:00,33.9,21.1,30.00,WNW,293,3.0,6.0,59,0.00,,CLR,0.00,VWS V14.01,2013-03-24 02:45:00,
2013-03-23 22:50:00,33.9,21.1,30.00,WNW,290,4.0,6.0,59,0.00,,CLR,0.00,VWS V14.01,2013-03-24 02:50:00,
2013-03-23 22:55:00,33.9,21.1,30.00,WNW,295,2.0,6.0,59,0.00,,CLR,0.00,VWS V14.01,2013-03-24 02:55:00,
2013-03-23 23:00:00,33.8,21.0,29.99,West,281,2.0,6.0,59,0.00,,CLR,0.00,VWS V14.01,2013-03-24 03:00:00,
2013-03-23 23:05:00,33.7,20.9,29.99,NW,319,0.0,3.0,59,0.00,,OVC055,0.00,VWS V14.01,2013-03-24 03:05:00,
2013-03-23 23:10:00,33.7,20.5,29.99,West,278,1.0,3.0,58,0.00,,OVC055,0.00,VWS V14.01,2013-03-24 03:10:00,
2013-03-23 23:15:00,33.6,20.8,29.99,West,278,1.0,4.0,59,0.00,,OVC055,0.00,VWS V14.01,2013-03-24 03:15:00,
2013-03-23 23:20:00,33.3,20.9,29.99,West,276,4.0,4.0,60,0.00,,OVC055,0.00,VWS V14.01,2013-03-24 03:20:00,
2013-03-23 23:25:00,33.1,21.1,29.99,WNW,290,2.0,4.0,61,0.00,,OVC055,0.00,VWS V14.01,2013-03-24 03:25:00,
2013-03-23 23:30:00,33.4,21.0,29.99,WNW,290,3.0,5.0,60,0.00,,OVC055,0.00,VWS V14.01,2013-03-24 03:30:00,
2013-03-23 23:35:00,33.6,21.2,30.00,WNW,293,3.0,7.0,60,0.00,,OVC055,0.00,VWS V14.01,2013-03-24 03:35:00,
2013-03-23 23:40:00,33.6,21.6,30.00,West,273,4.0,7.0,61,0.00,,OVC055,0.00,VWS V14.01,2013-03-24 03:40:00,
2013-03-23 23:45:00,33.6,21.6,30.00,WNW,295,3.0,7.0,61,0.00,,OVC055,0.00,VWS V14.01,2013-03-24 03:45:00,
2013-03-23 23:50:00,33.6,22.0,30.00,WNW,291,3.0,7.0,62,0.00,,OVC055,0.00,VWS V14.01,2013-03-24 03:50:00,
2013-03-23 23:55:00,33.5,21.9,30.00,West,280,6.0,8.0,62,0.00,,OVC055,0.00,VWS V14.01,2013-03-24 03:55:00,